Location: Armstrong Village
(14.3346°N, 120.9854°E)
Time: 12:11:37
(UTC+00:00)

Cosmos 1821 Rocket - Pass Details

Date: 15 April 2026
Orbit: 945 x 1003 km, 82.9° (Epoch: 12 May)

Event Time Altitude Azimuth Distance (km) Brightness Sun altitude
Exits shadow 11:29:52 14° 52° (NE) 2,419 5.7 -19.7°
Drops below altitude 10° 11:31:04 10° 43° (NE) 2,713 6.1 -20.0°
Sets 11:34:13 0° 28° (NNE) 3,672 6.9 -20.7°
